Tracking 35274 objects as of 12-Sep-2026
HD Live streaming from Space Station
objects crossing your sky now

SEEKER


SEEKER is no longer on orbit


NORAD ID: 44533
Int'l Code: 2019-022K
Launch date: September 16, 2019
Source: United States (US)
Launch site: ()
Decay date: 2023-12-05
Your satellite tracking list
Your tracking list is empty




NASA's NSSDC Master Catalog

Two Line Element Set (TLE):
1 44533U 19022K   23335.06021346  .09759729  12461-4  51995-3 0  9999
2 44533  51.6023 342.8969 0001160 254.3182 105.7718 16.42460009236701
Source of the keplerian elements: AFSPC